When you browse on this site, cookies collect data to enhance your experience and personalize the content and advertising you see.
Visit our Privacy Policy to learn more. By continuing to use the site, you agree to this use of cookies and data.

Hourly Weather Ohtyrka

Today, 7 July, Tuesday

Time Temperature Precipitation Wind Pressure Humidity
00:00 +24°C° 0 mm 3 mps 744 mmHg 86%
01:00 +22°C° 0 mm 3 mps 744 mmHg 86%
02:00 +23°C° 0 mm 2 mps 744 mmHg 80%
03:00 +23°C° 0.1 mm 2 mps 744 mmHg 80%
04:00 +23°C° 0.1 mm 2 mps 743 mmHg 79%
05:00 +23°C° 0.1 mm 2 mps 743 mmHg 79%
06:00 +25°C° 0 mm 2 mps 743 mmHg 73%
07:00 +26°C° 0 mm 2 mps 743 mmHg 67%
08:00 +28°C° 0 mm 2 mps 743 mmHg 61%
09:00 +30°C° 0 mm 2 mps 743 mmHg 57%
10:00 +31°C° 0 mm 2 mps 743 mmHg 53%
11:00 +34°C° 0 mm 2 mps 742 mmHg 49%
12:00 +34°C° 0 mm 3 mps 742 mmHg 47%
13:00 +35°C° 0 mm 3 mps 742 mmHg 46%
14:00 +35°C° 0 mm 3 mps 742 mmHg 47%
15:00 +35°C° 0 mm 2 mps 741 mmHg 50%
16:00 +35°C° 0 mm 2 mps 741 mmHg 53%
17:00 +35°C° 0 mm 2 mps 741 mmHg 56%
18:00 +31°C° 0.1 mm 2 mps 741 mmHg 63%
19:00 +28°C° 0.1 mm 3 mps 741 mmHg 70%
20:00 +26°C° 0.1 mm 4 mps 741 mmHg 77%
21:00 +24°C° 0.2 mm 3 mps 741 mmHg 82%
22:00 +22°C° 0.2 mm 3 mps 741 mmHg 88%
23:00 +21°C° 0.2 mm 3 mps 742 mmHg 93%

Tomorrow, 8 July, Wednesday

Time Temperature Precipitation Wind Pressure Humidity
00:00 +21°C° 0.5 mm 4 mps 742 mmHg 94%
01:00 +20°C° 0.5 mm 4 mps 742 mmHg 95%
02:00 +20°C° 0.5 mm 5 mps 742 mmHg 96%
03:00 +19°C° 0.1 mm 5 mps 742 mmHg 95%
04:00 +19°C° 0.1 mm 5 mps 743 mmHg 94%
05:00 +19°C° 0.1 mm 5 mps 743 mmHg 94%
06:00 +19°C° 0 mm 5 mps 743 mmHg 92%
07:00 +17°C° 0 mm 6 mps 743 mmHg 91%
08:00 +17°C° 0 mm 6 mps 744 mmHg 89%
09:00 +17°C° 0.2 mm 6 mps 744 mmHg 88%
10:00 +16°C° 0.2 mm 7 mps 745 mmHg 86%
11:00 +16°C° 0.2 mm 7 mps 745 mmHg 84%
12:00 +16°C° 0 mm 7 mps 746 mmHg 82%
13:00 +17°C° 0 mm 7 mps 746 mmHg 80%
14:00 +17°C° 0 mm 7 mps 747 mmHg 78%
15:00 +17°C° 0 mm 7 mps 747 mmHg 78%
16:00 +17°C° 0 mm 7 mps 747 mmHg 77%
17:00 +17°C° 0 mm 7 mps 747 mmHg 77%
18:00 +16°C° 0 mm 6 mps 748 mmHg 78%
19:00 +16°C° 0 mm 5 mps 748 mmHg 80%
20:00 +15°C° 0 mm 4 mps 748 mmHg 81%
21:00 +14°C° 0 mm 4 mps 748 mmHg 85%
22:00 +14°C° 0 mm 3 mps 749 mmHg 89%
23:00 +13°C° 0 mm 3 mps 749 mmHg 93%

Day after tomorrow, 9 July, Thursday

Time Temperature Precipitation Wind Pressure Humidity
00:00 +13°C° 0 mm 3 mps 749 mmHg 92%
01:00 +13°C° 0 mm 4 mps 749 mmHg 91%
02:00 +13°C° 0 mm 4 mps 749 mmHg 90%
03:00 +13°C° 0 mm 4 mps 750 mmHg 89%
04:00 +13°C° 0 mm 4 mps 750 mmHg 88%
05:00 +13°C° 0 mm 4 mps 750 mmHg 86%
06:00 +14°C° 0 mm 4 mps 750 mmHg 81%
07:00 +17°C° 0 mm 4 mps 750 mmHg 76%
08:00 +19°C° 0 mm 4 mps 751 mmHg 70%
09:00 +20°C° 0 mm 5 mps 751 mmHg 66%
10:00 +21°C° 0 mm 5 mps 751 mmHg 61%
11:00 +22°C° 0 mm 5 mps 751 mmHg 57%
12:00 +22°C° 0 mm 5 mps 751 mmHg 57%
13:00 +23°C° 0 mm 5 mps 751 mmHg 58%
14:00 +23°C° 0 mm 5 mps 751 mmHg 58%
15:00 +22°C° 0.1 mm 5 mps 751 mmHg 62%
16:00 +22°C° 0.1 mm 5 mps 751 mmHg 66%
17:00 +21°C° 0.1 mm 5 mps 752 mmHg 70%
18:00 +19°C° 0 mm 4 mps 752 mmHg 76%
19:00 +18°C° 0 mm 4 mps 752 mmHg 82%
20:00 +16°C° 0 mm 3 mps 752 mmHg 88%
21:00 +15°C° 0 mm 2 mps 752 mmHg 90%
22:00 +15°C° 0 mm 2 mps 753 mmHg 92%
23:00 +14°C° 0 mm 2 mps 753 mmHg 93%

10 July, Friday

Time Temperature Precipitation Wind Pressure Humidity
00:00 +14°C° 0 mm 2 mps 753 mmHg 94%
01:00 +13°C° 0 mm 2 mps 753 mmHg 94%
02:00 +13°C° 0 mm 2 mps 753 mmHg 95%
03:00 +13°C° 0 mm 2 mps 754 mmHg 94%
04:00 +13°C° 0 mm 2 mps 754 mmHg 94%
05:00 +14°C° 0 mm 2 mps 754 mmHg 93%
06:00 +15°C° 0 mm 2 mps 754 mmHg 86%
07:00 +17°C° 0 mm 2 mps 754 mmHg 80%
08:00 +19°C° 0 mm 2 mps 755 mmHg 73%
09:00 +20°C° 0 mm 2 mps 755 mmHg 67%
10:00 +21°C° 0 mm 2 mps 755 mmHg 62%
11:00 +23°C° 0 mm 2 mps 755 mmHg 56%
12:00 +24°C° 0 mm 2 mps 755 mmHg 53%
13:00 +25°C° 0 mm 2 mps 755 mmHg 50%
14:00 +25°C° 0 mm 2 mps 755 mmHg 48%
15:00 +25°C° 0 mm 2 mps 755 mmHg 50%
16:00 +25°C° 0 mm 2 mps 755 mmHg 51%
17:00 +25°C° 0 mm 2 mps 755 mmHg 53%
18:00 +23°C° 0 mm 2 mps 755 mmHg 59%
19:00 +20°C° 0 mm 2 mps 755 mmHg 64%
20:00 +18°C° 0 mm 2 mps 755 mmHg 69%
21:00 +17°C° 0 mm 2 mps 755 mmHg 71%
22:00 +17°C° 0 mm 2 mps 756 mmHg 72%
23:00 +16°C° 0 mm 1 mps 756 mmHg 74%

11 July, Saturday

Time Temperature Precipitation Wind Pressure Humidity
00:00 +16°C° 0 mm 2 mps 756 mmHg 75%
01:00 +15°C° 0 mm 2 mps 756 mmHg 75%
02:00 +15°C° 0 mm 2 mps 756 mmHg 76%
03:00 +15°C° 0 mm 2 mps 756 mmHg 77%
04:00 +15°C° 0 mm 2 mps 756 mmHg 78%
05:00 +15°C° 0 mm 2 mps 756 mmHg 80%
06:00 +17°C° 0 mm 2 mps 756 mmHg 75%
07:00 +19°C° 0 mm 2 mps 757 mmHg 69%
08:00 +21°C° 0 mm 2 mps 757 mmHg 64%
09:00 +24°C° 0 mm 2 mps 757 mmHg 59%
10:00 +25°C° 0 mm 2 mps 756 mmHg 54%
11:00 +26°C° 0 mm 2 mps 756 mmHg 49%
12:00 +26°C° 0 mm 2 mps 756 mmHg 47%
13:00 +27°C° 0 mm 2 mps 756 mmHg 45%
14:00 +27°C° 0 mm 1 mps 756 mmHg 43%
15:00 +27°C° 0 mm 2 mps 755 mmHg 45%
16:00 +27°C° 0 mm 2 mps 755 mmHg 47%
17:00 +27°C° 0 mm 2 mps 755 mmHg 50%
18:00 +25°C° 0 mm 2 mps 755 mmHg 55%
19:00 +23°C° 0 mm 2 mps 755 mmHg 60%
20:00 +20°C° 0 mm 2 mps 754 mmHg 66%
21:00 +19°C° 0 mm 2 mps 755 mmHg 67%
22:00 +19°C° 0 mm 2 mps 755 mmHg 69%
23:00 +18°C° 0 mm 3 mps 755 mmHg 70%

12 July, Sunday

Time Temperature Precipitation Wind Pressure Humidity
00:00 +17°C° 0 mm 3 mps 754 mmHg 71%
01:00 +17°C° 0 mm 2 mps 754 mmHg 72%
02:00 +16°C° 0 mm 2 mps 754 mmHg 72%
03:00 +16°C° 0 mm 2 mps 754 mmHg 74%
04:00 +16°C° 0 mm 2 mps 754 mmHg 76%
05:00 +16°C° 0 mm 2 mps 754 mmHg 78%
06:00 +18°C° 0 mm 3 mps 754 mmHg 74%
07:00 +20°C° 0 mm 3 mps 754 mmHg 69%
08:00 +22°C° 0 mm 3 mps 754 mmHg 65%
09:00 +24°C° 0 mm 3 mps 753 mmHg 59%
10:00 +26°C° 0 mm 3 mps 753 mmHg 53%
11:00 +27°C° 0 mm 3 mps 753 mmHg 48%
12:00 +27°C° 0 mm 3 mps 753 mmHg 46%
13:00 +28°C° 0 mm 3 mps 752 mmHg 44%
14:00 +28°C° 0 mm 3 mps 752 mmHg 42%
15:00 +28°C° 0 mm 3 mps 752 mmHg 45%
16:00 +28°C° 0 mm 2 mps 751 mmHg 49%
17:00 +27°C° 0 mm 2 mps 751 mmHg 52%
18:00 +25°C° 0 mm 2 mps 751 mmHg 57%
19:00 +23°C° 0 mm 2 mps 751 mmHg 61%
20:00 +20°C° 0 mm 2 mps 751 mmHg 66%
21:00 +20°C° 0 mm 2 mps 751 mmHg 68%
22:00 +19°C° 0 mm 2 mps 750 mmHg 70%
23:00 +18°C° 0 mm 2 mps 750 mmHg 73%
Show more